DLH1785 EHAM-EDDF

Flight info

Callsign DLH1785
Flight time 0h 41m
Altitude 33000
Route EDUPO Z739 MISGO DCT DIXAT DIXAT1A
Aircraft A21N/M-SDE2E3FGHIRWXY/LB1

Departure

Time 2026-05-05 18:36
Airport Amsterdam Airport Schiphol (EHAM)

Arrival

Time 2026-05-05 19:17
Airport Frankfurt Main Airport (EDDF)
Time Latitude Longitude Altitude Speed Heading
2026-05-05 18:09 52.30935 4.76882 -12 ft 0 kts 139°
2026-05-05 18:21 52.30948 4.76863 -3 ft 8 kts 135°
2026-05-05 18:21 52.30981 4.76803 -3 ft 7 kts 122°
2026-05-05 18:21 52.30996 4.76735 -3 ft 4 kts 104°
2026-05-05 18:22 52.31002 4.76706 -3 ft 0 kts 107°
2026-05-05 18:23 52.31000 4.76712 -3 ft 4 kts 106°
2026-05-05 18:24 52.31005 4.76783 -3 ft 6 kts 76°
2026-05-05 18:24 52.31021 4.76830 -3 ft 0 kts 53°
2026-05-05 18:25 52.31024 4.76835 -3 ft 3 kts 47°
2026-05-05 18:25 52.31039 4.76846 -3 ft 6 kts 21°
2026-05-05 18:25 52.31087 4.76930 -3 ft 9 kts 84°
2026-05-05 18:25 52.31086 4.77083 -3 ft 18 kts 93°
2026-05-05 18:26 52.31079 4.77329 -3 ft 22 kts 92°
2026-05-05 18:26 52.31030 4.77482 -3 ft 14 kts 165°
2026-05-05 18:26 52.30928 4.77477 -3 ft 16 kts 182°
2026-05-05 18:26 52.30809 4.77468 -3 ft 16 kts 184°
2026-05-05 18:27 52.30691 4.77454 -3 ft 20 kts 187°
2026-05-05 18:27 52.30606 4.77330 -3 ft 18 kts 238°
2026-05-05 18:27 52.30539 4.77153 -3 ft 20 kts 238°
2026-05-05 18:27 52.30458 4.76943 -3 ft 23 kts 237°
2026-05-05 18:28 52.30312 4.76562 -3 ft 18 kts 238°
2026-05-05 18:28 52.30243 4.76381 -2 ft 19 kts 238°
2026-05-05 18:28 52.30166 4.76178 -2 ft 23 kts 238°
2026-05-05 18:29 52.30089 4.75980 -2 ft 18 kts 238°
2026-05-05 18:29 52.30032 4.75830 -2 ft 13 kts 238°
2026-05-05 18:29 52.29988 4.75716 -2 ft 14 kts 238°
2026-05-05 18:29 52.29914 4.75524 -2 ft 26 kts 238°
2026-05-05 18:30 52.29832 4.75263 -2 ft 20 kts 271°
2026-05-05 18:30 52.29898 4.75090 -2 ft 19 kts 312°
2026-05-05 18:30 52.29986 4.74927 -2 ft 18 kts 311°
2026-05-05 18:30 52.30066 4.74776 -3 ft 19 kts 311°
2026-05-05 18:31 52.30141 4.74639 -3 ft 15 kts 311°
2026-05-05 18:31 52.30205 4.74522 -3 ft 12 kts 311°
2026-05-05 18:31 52.30237 4.74462 -3 ft 0 kts 311°
2026-05-05 18:31 52.30238 4.74461 -3 ft 2 kts 311°
2026-05-05 18:32 52.30267 4.74407 -3 ft 6 kts 311°
2026-05-05 18:32 52.30303 4.74340 -3 ft 9 kts 311°
2026-05-05 18:32 52.30347 4.74258 -3 ft 10 kts 311°
2026-05-05 18:32 52.30397 4.74166 -3 ft 11 kts 311°
2026-05-05 18:33 52.30424 4.74053 -3 ft 12 kts 263°
2026-05-05 18:33 52.30410 4.73953 -3 ft 7 kts 264°
2026-05-05 18:33 52.30411 4.73920 -3 ft 0 kts 274°
2026-05-05 18:35 52.30412 4.73887 -3 ft 10 kts 274°
2026-05-05 18:35 52.30446 4.73774 -3 ft 9 kts 323°
2026-05-05 18:35 52.30511 4.73763 -4 ft 10 kts
2026-05-05 18:35 52.30779 4.73785 -1 ft 78 kts
2026-05-05 18:36 52.31583 4.73861 -3 ft 152 kts
2026-05-05 18:36 52.32816 4.73984 455 ft 186 kts
2026-05-05 18:36 52.34095 4.74176 1530 ft 185 kts
2026-05-05 18:36 52.35336 4.74962 2183 ft 203 kts 23°
2026-05-05 18:37 52.36624 4.76042 2950 ft 208 kts 24°
2026-05-05 18:37 52.37918 4.77140 3803 ft 218 kts 30°
2026-05-05 18:37 52.39119 4.78939 4311 ft 249 kts 46°
2026-05-05 18:37 52.40329 4.81172 4932 ft 276 kts 45°
2026-05-05 18:38 52.41635 4.83567 5990 ft 281 kts 54°
2026-05-05 18:38 52.42340 4.86541 7167 ft 286 kts 83°
2026-05-05 18:38 52.42409 4.89850 8096 ft 295 kts 90°
2026-05-05 18:38 52.42389 4.93220 9149 ft 298 kts 90°
2026-05-05 18:39 52.42287 4.96628 10114 ft 302 kts 104°
2026-05-05 18:39 52.41427 4.99633 10999 ft 303 kts 130°
2026-05-05 18:39 52.39828 5.01959 11613 ft 316 kts 147°
2026-05-05 18:39 52.37962 5.04049 12086 ft 336 kts 148°
2026-05-05 18:40 52.35974 5.06294 12646 ft 353 kts 147°
2026-05-05 18:40 52.33984 5.08638 13689 ft 353 kts 144°
2026-05-05 18:40 52.32205 5.11381 14531 ft 361 kts 134°
2026-05-05 18:40 52.30517 5.14548 15375 ft 366 kts 132°
2026-05-05 18:41 52.28869 5.17674 16212 ft 370 kts 133°
2026-05-05 18:41 52.27122 5.20811 16994 ft 375 kts 134°
2026-05-05 18:41 52.25346 5.23964 17761 ft 379 kts 134°
2026-05-05 18:41 52.23672 5.27332 18507 ft 385 kts 126°
2026-05-05 18:42 52.22150 5.30942 19205 ft 389 kts 126°
2026-05-05 18:42 52.20580 5.34583 19907 ft 393 kts 127°
2026-05-05 18:42 52.18970 5.38228 20581 ft 397 kts 127°
2026-05-05 18:42 52.17358 5.41912 21222 ft 401 kts 126°
2026-05-05 18:43 52.15744 5.45647 21847 ft 405 kts 126°
2026-05-05 18:43 52.14123 5.49374 22452 ft 409 kts 127°
2026-05-05 18:43 52.12464 5.53154 23045 ft 413 kts 127°
2026-05-05 18:43 52.10795 5.56958 23610 ft 416 kts 127°
2026-05-05 18:44 52.09095 5.60846 24171 ft 420 kts 127°
2026-05-05 18:44 52.07398 5.64718 24701 ft 423 kts 127°
2026-05-05 18:44 52.05621 5.68553 25219 ft 426 kts 132°
2026-05-05 18:44 52.03660 5.72183 25713 ft 429 kts 133°
2026-05-05 18:45 52.01714 5.75813 26201 ft 432 kts 132°
2026-05-05 18:45 51.99752 5.79560 26668 ft 436 kts 131°
2026-05-05 18:45 51.97791 5.83348 27136 ft 439 kts 131°
2026-05-05 18:45 51.95802 5.87135 27593 ft 442 kts 132°
2026-05-05 18:46 51.93796 5.90916 28014 ft 445 kts 132°
2026-05-05 18:46 51.91718 5.94738 28067 ft 458 kts 135°
2026-05-05 18:46 51.89419 5.98397 28081 ft 471 kts 139°
2026-05-05 18:46 51.86989 6.02056 28218 ft 481 kts 137°
2026-05-05 18:47 51.84686 6.05832 28869 ft 478 kts 135°
2026-05-05 18:47 51.82414 6.09730 29542 ft 475 kts 135°
2026-05-05 18:47 51.80202 6.13347 30033 ft 474 kts 137°
2026-05-05 18:47 51.77847 6.17046 30547 ft 474 kts 137°
2026-05-05 18:48 51.75510 6.20804 31079 ft 473 kts 136°
2026-05-05 18:48 51.73247 6.24544 31563 ft 472 kts 135°
2026-05-05 18:48 51.70940 6.28304 32035 ft 471 kts 136°
2026-05-05 18:48 51.68580 6.32067 32497 ft 470 kts 136°
2026-05-05 18:49 51.66294 6.35732 32940 ft 469 kts 136°
2026-05-05 18:49 51.63975 6.39487 33019 ft 478 kts 136°
2026-05-05 18:49 51.59268 6.47046 32997 ft 474 kts 136°
2026-05-05 18:50 51.55378 6.53272 32999 ft 475 kts 136°
2026-05-05 18:50 51.50678 6.60778 33002 ft 476 kts 136°
2026-05-05 18:51 51.46023 6.68186 33003 ft 475 kts 136°
2026-05-05 18:51 51.41326 6.75643 32411 ft 470 kts 136°
2026-05-05 18:52 51.38987 6.79344 31271 ft 474 kts 136°
2026-05-05 18:52 51.36627 6.83069 30141 ft 478 kts 136°
2026-05-05 18:52 51.34250 6.86826 29049 ft 479 kts 136°
2026-05-05 18:52 51.31890 6.90547 27925 ft 481 kts 136°
2026-05-05 18:53 51.29491 6.94319 27169 ft 474 kts 137°
2026-05-05 18:53 51.27202 6.97919 27132 ft 450 kts 137°
2026-05-05 18:53 51.25021 7.01344 27124 ft 428 kts 137°
2026-05-05 18:53 51.22941 7.04599 26846 ft 414 kts 137°
2026-05-05 18:54 51.20881 7.07816 26100 ft 414 kts 137°
2026-05-05 18:54 51.18864 7.10970 25982 ft 399 kts 137°
2026-05-05 18:54 51.17541 7.13038 26008 ft 404 kts 137°
2026-05-05 18:54 51.15867 7.15645 26004 ft 412 kts 137°
2026-05-05 18:55 51.13826 7.18822 26006 ft 410 kts 137°
2026-05-05 18:55 51.11773 7.22018 26007 ft 413 kts 137°
2026-05-05 18:55 51.09718 7.25212 26009 ft 413 kts 137°
2026-05-05 18:55 51.07664 7.28398 26009 ft 413 kts 137°
2026-05-05 18:56 51.05585 7.31575 26008 ft 413 kts 141°
2026-05-05 18:56 51.03193 7.34070 26027 ft 409 kts 154°
2026-05-05 18:56 51.00696 7.36102 25779 ft 401 kts 155°
2026-05-05 18:56 50.98193 7.38124 24899 ft 405 kts 154°
2026-05-05 18:57 50.95707 7.40178 24338 ft 400 kts 154°
2026-05-05 18:57 50.93259 7.42208 23731 ft 396 kts 154°
2026-05-05 18:57 50.90812 7.44208 23111 ft 392 kts 155°
2026-05-05 18:57 50.88394 7.46177 22510 ft 389 kts 155°
2026-05-05 18:58 50.86110 7.48424 21922 ft 387 kts 138°
2026-05-05 18:58 50.84430 7.51721 21295 ft 386 kts 125°
2026-05-05 18:58 50.82946 7.55264 20635 ft 384 kts 125°
2026-05-05 18:58 50.81414 7.58703 20069 ft 380 kts 128°
2026-05-05 18:59 50.79846 7.62033 19512 ft 376 kts 128°
2026-05-05 18:59 50.78319 7.65356 18906 ft 373 kts 127°
2026-05-05 18:59 50.76828 7.68704 18324 ft 370 kts 126°
2026-05-05 18:59 50.75343 7.71997 17745 ft 367 kts 127°
2026-05-05 19:00 50.73865 7.75210 17183 ft 363 kts 127°
2026-05-05 19:00 50.72386 7.78437 16585 ft 361 kts 127°
2026-05-05 19:00 50.70928 7.81644 16020 ft 358 kts 127°
2026-05-05 19:00 50.69479 7.84825 15465 ft 355 kts 127°
2026-05-05 19:01 50.68043 7.87955 14997 ft 349 kts 127°
2026-05-05 19:01 50.66638 7.91018 15001 ft 347 kts 127°
2026-05-05 19:01 50.65208 7.94134 15006 ft 349 kts 127°
2026-05-05 19:01 50.63802 7.97200 14595 ft 345 kts 127°
2026-05-05 19:02 50.62377 8.00299 13806 ft 350 kts 127°
2026-05-05 19:02 50.61013 8.03259 13363 ft 344 kts 127°
2026-05-05 19:02 50.59615 8.06295 12798 ft 342 kts 127°
2026-05-05 19:02 50.58221 8.09316 12238 ft 339 kts 127°
2026-05-05 19:03 50.56842 8.12301 11694 ft 336 kts 127°
2026-05-05 19:03 50.55468 8.15271 11156 ft 334 kts 128°
2026-05-05 19:03 50.54110 8.18204 10619 ft 331 kts 128°
2026-05-05 19:03 50.52765 8.21106 10263 ft 322 kts 128°
2026-05-05 19:04 50.51505 8.23828 9991 ft 298 kts 128°
2026-05-05 19:04 50.50297 8.26426 9900 ft 297 kts 128°
2026-05-05 19:04 50.49080 8.29034 10012 ft 299 kts 128°
2026-05-05 19:04 50.47839 8.31702 10014 ft 305 kts 128°
2026-05-05 19:05 50.46593 8.34381 10003 ft 303 kts 128°
2026-05-05 19:05 50.45341 8.37065 10013 ft 305 kts 128°
2026-05-05 19:05 50.44088 8.39746 10009 ft 306 kts 128°
2026-05-05 19:05 50.42827 8.42446 10000 ft 305 kts 128°
2026-05-05 19:06 50.41570 8.45135 10011 ft 306 kts 128°
2026-05-05 19:06 50.40310 8.47823 9998 ft 306 kts 128°
2026-05-05 19:06 50.39061 8.50487 9998 ft 305 kts 128°
2026-05-05 19:06 50.37787 8.53205 9999 ft 307 kts 128°
2026-05-05 19:07 50.36529 8.55883 10000 ft 305 kts 128°
2026-05-05 19:07 50.35266 8.58568 10011 ft 304 kts 128°
2026-05-05 19:07 50.34024 8.61206 9996 ft 304 kts 128°
2026-05-05 19:07 50.32806 8.63795 9986 ft 285 kts 128°
2026-05-05 19:08 50.31667 8.66215 9919 ft 268 kts 128°
2026-05-05 19:08 50.30558 8.68558 9444 ft 269 kts 128°
2026-05-05 19:08 50.29450 8.70901 9029 ft 266 kts 128°
2026-05-05 19:08 50.28369 8.73191 9015 ft 263 kts 128°
2026-05-05 19:09 50.27269 8.75508 8993 ft 262 kts 128°
2026-05-05 19:09 50.26174 8.77822 9017 ft 269 kts 128°
2026-05-05 19:09 50.25111 8.80194 8995 ft 267 kts 117°
2026-05-05 19:09 50.24246 8.82736 8924 ft 260 kts 130°
2026-05-05 19:10 50.22872 8.84504 8302 ft 256 kts 157°
2026-05-05 19:10 50.21274 8.85591 7608 ft 247 kts 162°
2026-05-05 19:10 50.19651 8.86547 6697 ft 250 kts 163°
2026-05-05 19:10 50.18047 8.87478 6193 ft 238 kts 163°
2026-05-05 19:11 50.16464 8.88393 6191 ft 249 kts 163°
2026-05-05 19:11 50.14850 8.89127 6182 ft 237 kts 180°
2026-05-05 19:11 50.13348 8.88617 5523 ft 219 kts 214°
2026-05-05 19:11 50.12320 8.86927 4656 ft 211 kts 236°
2026-05-05 19:12 50.11619 8.84944 3620 ft 215 kts 252°
2026-05-05 19:12 50.11344 8.82764 3187 ft 191 kts 264°
2026-05-05 19:12 50.11089 8.80741 3196 ft 194 kts 255°
2026-05-05 19:12 50.10660 8.78864 3190 ft 179 kts 250°
2026-05-05 19:13 50.10208 8.77030 3179 ft 175 kts 251°
2026-05-05 19:13 50.09787 8.75239 3020 ft 179 kts 251°
2026-05-05 19:13 50.09364 8.73453 2839 ft 176 kts 251°
2026-05-05 19:13 50.08937 8.71658 2667 ft 175 kts 251°
2026-05-05 19:14 50.08513 8.69867 2493 ft 177 kts 251°
2026-05-05 19:14 50.08114 8.68185 2329 ft 177 kts 251°
2026-05-05 19:14 50.07745 8.66637 2166 ft 168 kts 251°
2026-05-05 19:14 50.07459 8.65438 2047 ft 156 kts 251°
2026-05-05 19:15 50.07137 8.64085 1880 ft 147 kts 251°
2026-05-05 19:15 50.06790 8.62624 1665 ft 140 kts 251°
2026-05-05 19:15 50.06456 8.61217 1378 ft 139 kts 251°
2026-05-05 19:15 50.06321 8.60642 1268 ft 138 kts 251°
2026-05-05 19:16 50.06096 8.59690 1089 ft 133 kts 251°
2026-05-05 19:16 50.05777 8.58327 897 ft 136 kts 251°
2026-05-05 19:16 50.05450 8.56962 696 ft 134 kts 250°
2026-05-05 19:16 50.05119 8.55604 560 ft 135 kts 250°
2026-05-05 19:17 50.04789 8.54235 432 ft 136 kts 249°
2026-05-05 19:17 50.04456 8.52852 374 ft 138 kts 250°
2026-05-05 19:17 50.04153 8.51577 350 ft 95 kts 249°
2026-05-05 19:17 50.04004 8.50971 327 ft 43 kts 249°
2026-05-05 19:18 50.03904 8.50570 322 ft 36 kts 248°
2026-05-05 19:18 50.03781 8.50302 321 ft 27 kts 223°
2026-05-05 19:18 50.03646 8.50201 315 ft 13 kts 150°
2026-05-05 19:18 50.03643 8.50341 321 ft 13 kts 72°
2026-05-05 19:19 50.03667 8.50450 323 ft 9 kts 69°
2026-05-05 19:19 50.03693 8.50555 325 ft 11 kts 69°
2026-05-05 19:19 50.03722 8.50674 325 ft 14 kts 69°
2026-05-05 19:19 50.03763 8.50851 330 ft 22 kts 71°
2026-05-05 19:20 50.03820 8.51114 332 ft 29 kts 69°
2026-05-05 19:20 50.03896 8.51413 331 ft 31 kts 68°
2026-05-05 19:20 50.03970 8.51719 334 ft 28 kts 69°
2026-05-05 19:20 50.04031 8.51969 350 ft 22 kts 69°
2026-05-05 19:21 50.04079 8.52162 348 ft 16 kts 69°
2026-05-05 19:21 50.04114 8.52308 349 ft 15 kts 69°
2026-05-05 19:21 50.04154 8.52481 351 ft 18 kts 71°
2026-05-05 19:21 50.04200 8.52693 356 ft 25 kts 71°
2026-05-05 19:22 50.04256 8.52920 362 ft 22 kts 69°
2026-05-05 19:22 50.04326 8.53200 360 ft 34 kts 69°
2026-05-05 19:22 50.04400 8.53539 369 ft 30 kts 83°
2026-05-05 19:22 50.04420 8.53892 373 ft 37 kts 84°
2026-05-05 19:23 50.04449 8.54303 362 ft 39 kts 83°
2026-05-05 19:23 50.04398 8.54666 353 ft 30 kts 133°
2026-05-05 19:23 50.04245 8.54812 355 ft 23 kts 161°
2026-05-05 19:23 50.04120 8.54882 358 ft 15 kts 161°
2026-05-05 19:24 50.04072 8.54908 356 ft 0 kts 161°
2026-05-05 19:26 50.04068 8.54910 356 ft 3 kts 161°
2026-05-05 19:26 50.04028 8.54946 359 ft 10 kts 137°
2026-05-05 19:27 50.04032 8.55086 361 ft 16 kts 69°
2026-05-05 19:27 50.04074 8.55252 361 ft 15 kts 69°
2026-05-05 19:27 50.04111 8.55402 359 ft 17 kts 69°
2026-05-05 19:27 50.04157 8.55598 361 ft 20 kts 69°
2026-05-05 19:28 50.04201 8.55783 360 ft 19 kts 70°
2026-05-05 19:28 50.04247 8.55972 360 ft 19 kts 69°
2026-05-05 19:28 50.04294 8.56161 358 ft 18 kts 69°
2026-05-05 19:28 50.04330 8.56304 359 ft 10 kts 70°
2026-05-05 19:29 50.04346 8.56375 360 ft 4 kts 70°
2026-05-05 19:29 50.04358 8.56434 364 ft 9 kts 71°
2026-05-05 19:29 50.04384 8.56551 364 ft 13 kts 71°
2026-05-05 19:29 50.04410 8.56663 362 ft 8 kts 71°
2026-05-05 19:30 50.04429 8.56743 365 ft 8 kts 69°
2026-05-05 19:30 50.04451 8.56825 364 ft 12 kts 59°
2026-05-05 19:30 50.04544 8.56893 360 ft 17 kts 14°
2026-05-05 19:30 50.04651 8.56931 361 ft 13 kts 12°
2026-05-05 19:31 50.04712 8.56997 361 ft 9 kts 61°
2026-05-05 19:31 50.04706 8.57063 361 ft 4 kts 110°
2026-05-05 19:31 50.04697 8.57092 366 ft 0 kts 114°
2026-05-05 19:31 50.04697 8.57095 366 ft 0 kts 114°